Location: Auttagershofen
(48.1940°N, 10.0237°E)
Time: 01:46:18
(UTC+00:00)

Cosmos 921 Rocket - Pass Details

Date: 18 January 2026
Orbit: 564 x 620 km, 75.8° (Epoch: 6 February)

Event Time Altitude Azimuth Distance (km) Brightness Sun altitude
Exits shadow 05:21:37 32° 285° (WNW) 1,008 3.6 -16.6°
Maximum altitude 05:22:03 33° 298° (WNW) 991 3.6 -16.5°
Drops below altitude 10° 05:25:54 10° 3° (N) 1,900 5.5 -15.9°
Sets 05:28:16 0° 13° (NNE) 2,795 6.4 -15.5°
